Regional Weather Roundup
Issued by NWS

Home | Current Version | Previous Version | Graphics & Text | Print | Product List | Glossary On
Versions: 1 2 3 4 5 6 7 8 9 10 11 12 13 14 15 16 17 18 19 20 21 22 23 24 25 26 27 28 29 30 31 32 33 34 35 36 37 38 39 40 41 42 43 44 45 46 47 48 49 50
000
ASUS43 KLOT 221106
RWRIL

ILLINOIS REGIONAL WEATHER ROUNDUP
NATIONAL WEATHER SERVICE CHICAGO/ROMEOVILLE IL
600 AM CDT MON SEP 22 2014

NOTE: "FAIR" INDICATES FEW OR NO CLOUDS BELOW 12,000 FEET WITH NO
SIGNIFICANT WEATHER AND/OR OBSTRUCTIONS TO VISIBILITY.

* THESE STATIONS ARE NOT UNDER NWS QUALITY CONTROL. THEY ALSO MAY NOT
  REPORT WEATHER SUCH AS PRECIPITATION OR FOG.

ILZ001-002-007-009-015-016-024-221200-
NORTHWEST ILLINOIS

CITY           SKY/WX    TMP DP  RH WIND       PRES   REMARKS
MOLINE         CLEAR     43  41  93 CALM      30.26R
STERLING*      CLEAR     43  39  87 CALM      30.26R
SAVANNA*         N/A     41  39  95 CALM      30.26R FOG
$$

ILZ003-004-008-010-011-017-018-221200-
NORTH CENTRAL ILLINOIS

CITY           SKY/WX    TMP DP  RH WIND       PRES   REMARKS
ROCKFORD       PTCLDY    43  39  86 CALM      30.27R
FREEPORT*      CLEAR     39  38  96 CALM      30.28R
ROCHELLE*      CLEAR     39  38  98 CALM      30.25R
DE KALB*       CLEAR     40  38  94 NW6       30.24S
PERU*          CLEAR     43  41  91 N6        30.26R
$$

ILZ005-006-012>014-019>023-221200-
NORTHEAST ILLINOIS

CITY           SKY/WX    TMP DP  RH WIND       PRES   REMARKS
CHICAGO-OHARE  PTCLDY    46  40  79 NW8       30.22R
CHICAGO-MIDWAY PTCLDY    48  43  82 NW8       30.22R
AURORA         CLEAR     41  37  86 NW3       30.24R
LANSING*       MOCLDY    47  45  90 NW3       30.21R
JOLIET*        CLEAR     44  42  91 N5        30.24R
WAUKEGAN       CLEAR     42  38  85 NW5       30.22R
DUPAGE AIRPORT CLEAR     43  39  86 NW3       30.23R
KANKAKEE*      CLEAR     45  44  93 CALM      30.22R
WHEELING       CLEAR     45  40  82 NW6       30.24R
MORRIS*        CLEAR     44  43  97 N3        30.23R
ROMEOVILLE*    CLEAR     44  43  97 N6        30.23R
NORTHERLY ISL    N/A     52  45  77 NW6         N/A
$$

LMZ740>746-221200-
SOUTHERN LAKE MICHIGAN

STATION/POSITION SKY/WX   TEMP    WIND        PRES    VSBY  WAVE
                          AIR SEA DIR/SP/G                  HT/PER
                          (F)     (DEG/KT/KT) (MB)    (MI)  (FT/S)
SOUTHERN BUOY              53 61  340/ 12/ 14 1022.9R         6/ 8
WAUKEGAN HARBOR            46     330/  7/ 11   N/A
HARRISON CRIB              52     320/ 13/ 14   N/A
BURNHAM HARBOR             52     290/  3/  7   N/A
CALUMET HARBOR             54     360/  8/ 10 1021.6R
MICHIGAN CITY              54     360/ 16/ 20   N/A
MICHIGAN CITY 6N           55 64   10/ 12/ 17   N/A           7/ 7
ST. JOSEPH                 50 65   70/ 10/ 14   N/A           5/ 7
$$

ILZ025>027-034>036-040-047-049-050-058-095>099-221200-
WEST-CENTRAL ILLINOIS

CITY           SKY/WX    TMP DP  RH WIND       PRES   REMARKS
QUINCY         CLEAR     49  46  90 N5        30.25R
GALESBURG*     CLEAR     40  40  99 CALM      30.25R
MACOMB*        CLEAR     43  43  99 CALM      30.27R
JACKSONVILLE*  CLEAR     48  47  96 NW3       30.25R
PITTSFIELD*    CLEAR     50  46  87 CALM      30.26R
$$

ILZ028>032-037-038-041>044-048-051>054-059>061-221200-
CENTRAL ILLINOIS

CITY           SKY/WX    TMP DP  RH WIND       PRES   REMARKS
PONTIAC        CLEAR     43  43 100 CALM      30.23R
DECATUR        CLEAR     48  46  93 N3        30.23R
PEORIA         CLEAR     48  44  86 CALM      30.25R
LACON*         CLEAR     43  42  96 CALM      30.24R
LINCOLN*       CLEAR     48  46  94 CALM      30.22R
SPRINGFIELD    CLEAR     49  46  90 CALM      30.24R
TAYLORVILLE    CLEAR     46  46 100 CALM      30.23R FOG
$$

ILZ033-039-045-046-055>057-062-063-221200-
EAST-CENTRAL ILLINOIS

CITY           SKY/WX    TMP DP  RH WIND       PRES   REMARKS
CHAMPAIGN      CLEAR     45  43  93 N7        30.22R
DANVILLE*      CLEAR     44  43  96 CALM      30.18S
RANTOUL*       CLEAR     49  44  81 N5        30.22S
MATTOON        CLEAR     45  44  97 NW6       30.21R
PARIS*         CLEAR     47  47 100 NW3       30.21R
$$

ILZ079-100>102-221200-
SOUTHWEST ILLINOIS

CITY           SKY/WX    TMP DP  RH WIND       PRES   REMARKS
ALTON          CLEAR     51  49  92 CALM      30.24R
BELLEVILLE     CLEAR     53  51  94 N5        30.22R
CAHOKIA*       CLEAR     50  48  93 CALM      30.24R FOG
SPARTA*        CLEAR     51  49  93 CALM      30.23R
$$

ILZ064>066-069>071-074>076-080>082-084>086-088>090-092>094-221200-
SOUTH-CENTRAL ILLINOIS

CITY           SKY/WX    TMP DP  RH WIND       PRES   REMARKS
CARBONDALE     CLEAR     50  48  93 NW6       30.21R
CAIRO*         CLEAR     55  50  85 CALM      30.19R
EFFINGHAM*     CLEAR     49  46  92 N3        30.22R
MARION         CLEAR     52  50  93 CALM      30.21R
MT. VERNON     CLEAR     48  45  87 CALM      30.21R
CENTRALIA*     CLEAR     49  47  92 CALM      30.22R
SALEM*         CLEAR     50  50  99 CALM      30.22R FOG
METROPOLIS*    CLEAR     50  50 100 CALM      30.18S
$$

ILZ067-068-072-073-078-083-087-091-221200-
SOUTHEAST ILLINOIS

CITY           SKY/WX    TMP DP  RH WIND       PRES   REMARKS
LAWRENCEVILLE  CLEAR     50  49  96 N5        30.20R
FAIRFIELD*     CLEAR    N/A N/A N/A CALM      30.20R
HARRISBURG*    CLEAR     49  49  99 CALM      30.21R
ROBINSON*        N/A     48  48  99 NW3       30.21R FOG
CARMI*         CLEAR     50  50  99 NW3       30.19R
$$

ABBREVIATIONS USED IN REMARKS
   TC - TEMPERATURE IN CELSIUS
  WCI - WIND CHILL INDEX
   HX - HEAT INDEX
  VSB - VISIBILITY
$$



USA.gov is the U.S. government's official web portal to all federal, state and local government web resources and services.